Theta_e
315 314 314 314 315 315 316 316 317 317 318 318 318 319 320 320 320 320 320 321 321 321 320 320 320 321 312 300 303 324 342 341 322 311 306 305 300 297 297 296 299 298 301 303 305 314 318
315 314 314 314 315 315 315 316 317 317 318 318 318 319 319 319 319 319 319 319 319 319 319 319 319 320 310 294 310 326 317 314 309 305 302 304 304 302 299 298 297 300 300 302 303 314 317
315 314 314 314 315 315 316 316 317 318 318 318 318 318 319 319 319 319 319 318 317 318 319 319 320 318 308 304 314 318 310 307 309 308 303 305 306 303 301 298 300 301 299 301 304 311 312
315 315 315 315 315 316 316 315 316 318 318 318 318 318 318 318 318 318 318 317 317 319 320 319 322 314 305 313 313 312 311 312 312 309 309 309 308 304 300 301 301 298 297 294 296 309 314
316 316 315 315 316 315 315 316 316 317 318 318 318 317 317 317 317 318 316 315 318 320 320 322 312 312 307 320 312 314 314 312 311 311 311 315 307 302 301 296 294 295 291 294 296 302 313
317 317 317 316 316 315 315 316 316 317 318 318 317 317 316 316 317 316 314 315 319 318 319 320 318 302 307 308 312 315 313 312 309 308 305 303 300 297 295 295 290 290 291 292 294 297 305
317 317 317 317 317 316 316 316 316 317 317 318 317 316 315 316 316 314 311 306 304 299 303 298 299 306 305 311 312 310 314 310 308 302 296 298 295 293 297 298 298 296 294 294 297 301 300
317 317 317 317 318 317 316 315 316 316 317 317 317 316 316 315 315 314 307 305 306 306 297 303 303 303 306 306 304 307 313 305 301 296 297 295 293 300 300 298 297 296 294 294 298 300 298
317 317 317 317 317 316 316 315 316 316 316 316 315 315 315 315 314 310 306 308 310 306 294 300 303 302 303 305 302 304 308 302 297 294 294 293 298 301 299 296 296 293 293 293 295 298 298
317 317 317 316 316 316 316 316 316 316 316 316 315 315 315 313 304 305 306 310 309 307 291 298 303 306 305 304 301 308 309 304 297 295 294 294 299 299 296 297 297 291 299 298 297 295 290
317 317 316 316 316 316 316 316 316 316 316 315 314 315 314 313 303 300 304 307 310 302 284 305 304 309 304 301 303 303 306 302 297 297 295 294 296 297 296 298 299 297 301 298 297 293 291
317 317 316 316 316 316 315 315 316 316 315 314 314 314 314 307 303 306 308 307 302 292 285 301 302 300 299 299 300 302 302 304 301 297 298 296 301 300 300 303 303 305 298 295 293 291 287
317 316 316 316 316 316 316 315 315 315 314 313 313 313 311 310 299 303 307 301 290 286 300 299 298 300 298 297 299 300 298 296 294 289 289 296 297 301 304 299 301 299 294 287 286 286 287
316 316 316 316 316 316 315 315 315 314 313 313 312 310 307 310 306 307 303 294 284 294 296 302 300 299 297 297 297 298 296 293 296 295 291 290 289 298 304 299 296 295 293 287 282 284 289
316 315 316 317 316 316 315 315 314 313 312 311 309 303 302 305 308 307 296 285 286 293 299 298 298 296 296 299 299 297 295 294 296 297 293 290 292 302 303 304 302 297 292 297 290 289 288
316 316 316 316 316 316 315 315 315 314 313 310 303 299 301 309 310 304 294 288 291 299 300 299 294 297 293 295 296 298 296 305 303 300 298 295 291 298 304 304 304 301 302 295 290 284 283
316 316 316 315 315 315 316 315 315 314 311 308 301 298 306 309 308 301 289 290 296 302 302 299 296 295 296 295 296 297 301 307 309 308 298 296 293 293 298 297 297 298 295 294 293 291 287
315 315 315 315 315 315 315 315 315 313 309 305 299 289 309 308 297 295 292 296 301 301 303 300 299 297 297 297 296 297 302 306 313 310 301 297 292 289 293 300 304 300 298 296 291 291 293
315 315 315 315 315 315 315 314 314 312 308 300 295 297 310 306 291 292 297 300 302 301 301 300 298 300 300 295 292 300 304 311 311 309 304 304 291 286 290 294 301 299 303 300 295 294 293
311 315 315 315 315 315 314 314 314 312 310 302 297 294 301 301 298 296 294 296 297 304 302 303 299 298 296 294 296 296 301 310 312 309 315 307 292 289 287 290 298 297 301 302 297 291 292
312 313 316 316 316 315 315 314 312 312 310 303 297 296 300 293 296 297 297 299 298 298 302 302 295 297 295 290 293 294 302 304 310 310 305 301 296 298 300 302 299 299 301 302 300 298 294
311 315 315 316 316 315 315 312 312 311 309 300 296 296 302 298 299 298 297 297 300 302 300 298 297 302 296 293 294 294 298 299 299 302 300 302 296 297 297 301 302 298 302 303 304 303 302
311 315 315 316 316 315 313 313 313 312 308 299 301 302 301 297 295 294 295 299 300 303 303 303 305 301 300 300 304 301 302 301 302 299 298 298 296 295 292 301 300 293 302 304 304 304 304
310 315 315 315 315 313 313 313 314 312 309 305 302 301 297 294 298 298 302 302 302 303 301 307 308 301 307 309 307 304 304 305 303 301 301 297 296 296 293 297 288 296 307 309 305 306 307
312 315 315 314 313 313 312 313 313 312 310 302 302 301 297 294 299 301 302 300 301 301 304 306 309 309 309 304 298 295 295 296 297 302 301 302 299 294 292 291 296 302 305 305 303 302 309
314 314 313 312 312 312 312 313 312 311 309 302 306 305 302 296 298 303 300 300 295 295 301 304 308 309 306 300 296 289 288 293 293 299 305 304 302 297 294 290 289 298 309 313 309 296 309
310 310 310 310 310 312 313 312 310 310 309 302 304 305 303 295 300 301 298 297 300 297 296 300 300 305 306 298 294 291 292 297 291 291 294 295 296 295 290 291 296 307 311 313 298 298 311
308 309 309 309 309 309 312 310 309 308 309 303 299 302 303 296 299 304 306 299 299 297 293 296 301 301 300 295 296 295 294 296 295 298 296 295 293 296 297 291 291 311 312 303 307 313 315
308 309 309 308 309 309 310 309 308 308 309 306 295 305 308 302 299 305 307 308 306 304 299 297 301 301 302 298 297 297 296 296 294 293 304 297 302 299 300 300 306 312 311 315 315 314 314
Wind_Speed
4 3 4 4 5 6 8 9 10 11 12 13 16 18 20 21 22 24 24 23 23 21 19 15 12 10 3 4 8 2 9 10 7 6 5 6 3 3 1 2 2 5 4 3 9 9 21
5 4 4 4 4 6 7 8 9 10 12 14 15 18 20 21 21 23 25 24 23 21 17 13 8 4 1 3 2 7 8 7 5 5 3 4 6 6 2 3 3 3 4 7 3 6 9
7 6 5 4 4 4 6 7 8 9 11 13 15 18 20 22 23 24 25 24 23 21 14 8 5 3 3 12 4 6 8 6 6 4 4 5 3 2 2 4 3 4 7 6 4 7 4
9 8 7 6 5 5 5 6 8 9 11 12 14 16 19 22 24 25 27 26 23 16 3 4 5 2 7 3 3 4 3 4 5 6 3 5 4 4 3 1 7 5 5 5 2 8 5
10 9 8 7 7 6 6 7 8 10 12 14 15 16 19 22 24 26 29 27 13 4 5 7 2 0 9 2 2 6 5 4 4 3 5 4 2 1 5 5 6 7 1 2 2 7 7
12 10 9 8 8 7 7 8 9 11 13 14 16 17 19 23 24 25 30 23 5 3 2 4 3 3 4 1 3 3 4 1 2 2 3 2 5 4 4 5 4 3 2 4 4 1 4
12 11 9 8 8 7 8 8 9 11 13 15 16 18 20 23 25 23 15 6 9 8 7 7 7 5 8 7 5 4 4 5 2 7 1 4 4 3 5 5 3 2 2 4 6 8 8
13 11 10 9 8 8 8 8 9 10 12 14 16 18 21 24 26 21 3 6 7 5 14 10 16 12 11 3 5 3 7 5 4 3 2 5 3 6 3 2 3 3 3 6 9 3 3
14 13 11 10 9 9 8 8 8 9 11 13 14 16 19 27 28 4 3 2 1 2 4 11 6 6 5 10 9 7 7 4 4 4 3 5 7 4 2 4 3 3 4 4 8 7 2
15 14 12 11 10 9 8 8 8 9 10 12 13 15 16 29 5 6 6 6 8 2 4 9 5 8 5 7 3 8 7 6 1 8 5 5 5 6 5 6 6 5 8 7 5 3 4
16 15 13 12 11 10 9 8 8 9 10 12 12 13 12 7 5 4 7 12 11 4 4 2 2 3 3 7 6 4 5 5 7 6 7 8 1 2 3 8 7 9 3 8 5 5 1
17 16 15 13 11 10 9 9 9 9 10 12 13 12 11 1 2 8 9 10 3 6 7 7 1 2 4 1 2 3 3 6 4 5 1 7 2 4 7 3 6 7 2 5 5 4 1
18 17 16 13 12 11 9 9 9 10 11 12 14 15 7 2 6 2 5 5 5 4 6 5 4 4 3 3 2 4 5 4 6 3 3 4 4 4 4 4 1 4 6 4 5 4 7
21 19 16 13 12 11 10 9 9 10 10 13 16 19 6 7 4 1 4 5 3 3 6 5 5 3 5 1 2 3 5 5 4 4 3 2 8 3 2 4 3 4 7 7 3 3 5
22 20 18 16 13 11 10 9 8 8 10 12 14 4 4 6 8 4 6 3 8 5 5 8 8 7 8 7 3 1 6 3 7 9 8 5 5 5 3 3 3 2 4 6 3 1 2
20 20 18 17 14 12 10 10 8 8 9 7 4 4 5 3 8 4 5 5 4 3 6 4 2 3 3 5 5 5 4 5 5 5 6 2 3 3 5 3 5 6 4 1 3 3 4
20 19 19 16 14 12 11 10 7 6 8 7 2 5 5 6 2 5 5 7 4 5 4 5 2 2 3 2 2 4 5 1 6 7 4 5 6 6 3 1 2 5 4 3 3 5 6
20 20 19 17 15 13 11 10 6 3 7 5 1 3 2 4 4 0 3 5 2 3 1 6 4 8 2 2 1 3 3 3 8 4 3 3 5 4 10 8 6 5 6 8 5 5 4
18 21 20 18 16 14 12 10 7 2 5 2 1 4 5 5 2 1 4 3 2 4 4 3 4 2 2 4 3 2 4 5 6 5 3 3 2 3 11 8 3 3 2 4 3 1 7
12 21 21 20 18 16 13 11 9 7 5 4 2 3 5 3 0 5 2 4 4 4 8 7 7 4 2 3 3 2 2 0 4 3 4 3 3 4 7 3 3 5 4 3 3 2 3
17 23 24 22 20 18 15 13 11 9 7 4 1 4 2 3 1 1 2 2 5 3 5 2 3 5 6 3 3 3 1 0 4 8 4 5 1 3 6 8 4 7 9 9 2 3 2
13 30 25 23 20 19 17 15 12 11 9 3 4 0 4 3 4 2 2 3 4 5 5 6 1 3 3 7 7 6 4 4 3 3 3 3 0 2 4 4 5 4 7 6 1 2 7
11 25 26 24 22 19 17 15 14 12 5 3 2 1 3 4 4 1 2 4 5 6 5 6 2 4 1 4 5 6 5 1 2 6 3 3 4 4 6 5 7 3 3 5 4 3 6
10 28 26 25 23 21 17 15 14 13 5 2 1 2 3 3 1 1 5 4 4 7 2 4 6 2 3 2 4 6 7 5 3 2 3 5 4 2 5 4 3 4 4 3 2 5 1
19 28 24 27 25 21 17 14 14 13 9 3 1 3 1 1 2 4 7 4 6 5 5 4 6 2 5 5 5 6 6 5 1 3 1 1 5 1 2 3 3 2 3 3 3 3 5
26 28 26 25 20 20 16 14 14 11 8 4 1 2 1 3 2 5 4 4 3 5 6 5 5 6 6 4 4 3 2 4 4 2 3 3 4 5 0 4 8 4 2 1 2 3 2
24 24 24 23 19 17 17 16 14 11 8 4 0 1 2 1 4 3 3 2 3 2 1 3 7 9 4 3 3 3 3 2 2 2 2 1 2 4 2 5 6 2 4 2 4 7 4
18 19 17 17 16 15 17 17 14 9 8 4 3 2 3 1 5 2 2 1 4 3 3 5 4 5 5 5 2 1 0 1 2 2 1 1 3 2 4 3 6 3 3 5 5 5 5
14 14 13 13 13 13 13 12 12 9 9 6 1 2 2 2 5 3 9 10 9 10 2 3 3 2 3 4 1 1 1 2 0 2 3 2 4 4 6 6 3 5 7 2 6 8 3
Wind_Direction
278 296 316 331 342 347 348 343 340 337 334 331 331 331 328 324 323 321 316 314 312 309 304 306 309 304 271 358 255 126 117 125 131 144 182 145 151 137 148 220 268 195 249 323 298 193 164
253 261 288 309 327 336 339 334 333 331 330 329 330 328 326 323 322 318 314 312 308 304 300 299 290 279 280 312 242 147 133 134 146 165 171 161 179 198 212 226 156 236 253 278 226 131 144
248 245 247 264 291 312 321 324 325 326 328 330 330 329 328 324 323 319 315 315 311 305 299 284 241 234 114 239 356 156 154 180 176 175 164 221 178 49 160 313 230 266 351 351 121 139 128
235 241 243 250 261 277 294 307 320 323 326 327 327 327 326 325 324 322 319 319 314 309 300 185 198 237 248 241 94 145 171 294 185 206 227 227 206 219 181 312 9 31 44 354 324 129 204
237 236 235 247 259 271 286 306 319 325 329 330 330 330 329 327 326 323 320 320 317 52 111 154 167 142 273 9 175 228 167 235 157 194 241 268 262 119 38 88 21 9 257 282 37 200 146
233 235 238 245 258 276 295 313 323 327 330 331 330 330 330 327 326 326 320 309 195 83 207 215 251 340 288 67 288 208 204 186 317 351 17 108 49 55 39 74 191 220 10 337 281 352 174
230 235 239 244 262 281 299 315 322 325 328 329 331 331 330 327 324 328 339 9 8 349 30 244 249 263 283 273 282 238 173 107 243 53 204 3 67 190 237 197 155 128 202 260 255 172 188
221 228 236 242 247 261 282 301 314 322 325 328 330 331 332 328 321 323 354 72 84 247 300 253 247 245 240 57 314 296 115 146 126 205 52 9 255 237 237 254 188 196 270 289 289 309 146
216 219 226 235 243 254 268 285 300 313 319 323 325 328 334 327 321 21 296 110 50 304 264 296 233 221 198 146 203 254 135 132 131 172 180 171 244 69 203 266 242 214 210 229 223 329 312
214 218 220 225 233 244 257 275 293 307 314 319 321 326 340 328 41 322 302 318 337 255 12 277 258 261 151 148 233 208 169 141 102 193 167 219 266 224 242 242 156 275 200 231 260 65 261
213 214 217 221 230 235 248 265 285 299 310 313 316 321 339 349 292 328 280 333 321 66 341 269 213 104 134 153 160 238 191 79 177 186 113 243 266 67 253 228 156 231 242 213 231 208 86
211 213 213 216 223 232 245 262 280 295 306 310 310 315 344 351 302 248 319 306 36 47 252 322 358 143 147 14 46 91 136 70 144 158 151 232 273 227 221 267 190 258 306 61 53 109 18
209 213 212 212 215 226 239 256 276 291 301 306 307 307 310 224 238 313 339 19 48 165 314 327 317 332 183 194 225 146 148 162 179 123 292 319 262 269 203 288 300 89 64 345 342 5 225
200 202 208 208 212 221 234 249 270 287 302 309 310 308 237 209 229 231 36 51 193 249 266 315 322 333 73 349 251 139 114 211 260 101 99 160 322 202 53 184 226 184 153 152 225 226 251
198 202 196 199 205 214 226 241 261 284 304 318 316 322 285 256 194 136 91 111 208 217 312 336 334 54 12 340 62 181 174 253 221 165 177 151 269 292 215 217 148 289 209 191 146 40 13
205 195 196 196 195 207 218 233 252 284 307 352 331 337 269 295 156 101 88 228 248 252 328 340 19 39 31 332 45 37 53 294 326 175 122 288 332 281 308 349 242 172 199 333 14 210 243
201 198 192 192 190 201 209 224 238 283 309 334 24 351 254 159 145 53 167 219 269 272 19 354 313 297 239 95 47 13 353 331 359 323 153 157 136 274 336 212 228 15 351 356 148 160 184
196 196 190 189 190 195 200 210 220 277 326 75 43 341 284 87 72 102 170 197 312 321 92 271 234 220 198 98 88 47 92 327 326 301 47 319 146 199 231 243 212 186 226 177 159 250 200
205 196 190 188 188 186 189 198 198 182 70 99 84 260 299 125 165 249 274 278 268 285 270 278 288 184 289 141 83 62 121 265 344 69 28 342 323 22 338 349 55 163 195 201 202 93 193
219 207 193 186 183 180 181 185 184 164 132 96 87 326 306 55 249 154 188 258 255 250 258 216 249 197 194 109 33 123 77 292 340 56 44 125 83 160 193 231 318 344 313 299 123 101 200
223 213 195 185 181 175 175 175 173 162 147 99 102 247 212 279 268 161 167 250 275 265 245 225 261 200 170 133 120 151 146 1 358 354 41 86 76 348 260 247 236 242 270 285 281 250 150
253 193 184 176 171 173 171 168 163 158 135 85 149 204 337 288 307 279 88 268 246 250 216 281 294 33 213 147 166 192 169 183 208 21 49 9 318 325 286 312 14 277 279 241 277 310 69
230 186 173 173 171 165 157 158 160 163 130 126 260 309 114 296 321 83 243 287 302 296 245 226 262 126 128 213 173 185 170 41 198 151 131 100 107 21 278 331 331 333 227 264 269 205 147
253 176 170 169 158 154 156 157 162 159 161 120 191 100 106 278 347 335 321 295 306 327 311 23 32 80 311 341 93 65 53 82 105 60 150 133 102 106 274 352 262 251 332 299 59 10 35
225 166 163 155 151 151 152 155 153 154 168 114 132 103 166 176 281 317 330 348 317 340 30 66 17 274 294 30 57 32 349 11 355 76 309 103 121 108 252 227 267 210 27 3 42 269 304
148 145 140 136 142 148 144 146 144 145 147 101 160 137 173 126 251 281 311 350 12 340 2 8 327 325 46 74 72 114 235 241 319 44 45 34 80 118 358 242 208 223 2 104 178 275 165
100 115 126 131 137 140 155 150 150 155 154 109 211 125 102 158 271 1 46 305 331 22 30 325 338 354 24 54 82 148 253 284 204 214 196 51 360 116 267 276 291 258 331 274 104 241 130
98 104 118 131 138 156 161 153 151 162 161 110 252 193 132 155 275 277 305 6 351 40 80 291 32 351 32 58 76 327 78 328 349 359 92 135 55 45 303 278 289 307 15 143 222 335 160
114 120 126 125 125 129 142 151 166 181 175 127 319 316 144 150 244 264 249 225 193 216 149 356 164 175 170 89 44 188 44 24 263 205 253 156 106 277 211 223 317 287 266 177 55 252 244